| time (UTC) | temp F | wind direction | speed knots | gust knots | rain 1hr in | rain 24hr in | rain mn in | humidity % | barometer mb |
| 20260505075103 | 44 | 74 | 3.5 | 7.8 | 0.05 | 0.11 | 0.09 | 86 | 1013.2 |
| 20260505074104 | 44 | 24 | 1.7 | 8.7 | 0.04 | 0.10 | 0.08 | 85 | 1013.0 |
| 20260505073104 | 44 | 5 | 3.5 | 8.7 | 0.04 | 0.10 | 0.08 | 84 | 1013.1 |
| 20260505072104 | 44 | 358 | 4.3 | 10.4 | 0.03 | 0.09 | 0.07 | 83 | 1013.1 |
| 20260505071104 | 46 | 349 | 7.0 | 12.2 | 0.02 | 0.08 | 0.06 | 81 | 1012.9 |
| 20260505070104 | 48 | 336 | 5.2 | 7.8 | 0.00 | 0.06 | 0.04 | 81 | 1013.0 |
| 20260505065103 | 49 | 321 | 4.3 | 7.0 | 0.03 | 0.05 | 0.03 | 83 | 1013.0 |
| 20260505064104 | 49 | 339 | 0.0 | 3.5 | 0.03 | 0.05 | 0.03 | 83 | 1012.8 |
| 20260505063104 | 50 | 175 | 0.9 | 1.7 | 0.02 | 0.04 | 0.02 | 82 | 1012.7 |
| 20260505062103 | 50 | 175 | 0.0 | 0.9 | 0.00 | 0.02 | 0.00 | 81 | 1012.7 |
| 20260505061104 | 50 | 176 | 0.0 | 1.7 | 0.00 | 0.02 | 0.00 | 81 | 1012.7 |
| 20260505060103 | 50 | 173 | 0.0 | 1.7 | 0.00 | 0.02 | 0.00 | 80 | 1012.6 |
| 20260505055104 | 50 | 158 | 0.9 | 1.7 | 0.00 | 0.02 | 0.02 | 81 | 1012.4 |
| 20260505054103 | 49 | 228 | 0.0 | 0.0 | 0.00 | 0.02 | 0.02 | 82 | 1012.3 |
| 20260505053105 | 49 | 228 | 0.0 | 0.0 | 0.00 | 0.02 | 0.02 | 81 | 1012.3 |
| 20260505052103 | 49 | 228 | 0.0 | 0.0 | 0.00 | 0.02 | 0.02 | 82 | 1012.4 |
| 20260505051103 | 49 | 228 | 0.0 | 1.7 | 0.00 | 0.02 | 0.02 | 82 | 1012.4 |
| 20260505050104 | 49 | 177 | 0.9 | 2.6 | 0.00 | 0.02 | 0.02 | 81 | 1012.4 |
| 20260505041104 | 50 | 190 | 0.0 | 1.7 | 0.00 | 0.02 | 0.02 | 79 | 1012.5 |
| 20260505040103 | 50 | 189 | 0.9 | 2.6 | 0.00 | 0.02 | 0.02 | 78 | 1012.3 |
| 20260505035103 | 51 | 189 | 1.7 | 3.5 | 0.01 | 0.02 | 0.02 | 78 | 1012.2 |
| 20260505034125 | 51 | 180 | 0.0 | 1.7 | 0.01 | 0.02 | 0.02 | 77 | 1012.3 |
| 20260505033103 | 51 | 228 | 0.0 | 3.5 | 0.01 | 0.02 | 0.02 | 76 | 1012.3 |
| 20260505032103 | 51 | 240 | 1.7 | 3.5 | 0.00 | 0.01 | 0.01 | 75 | 1012.2 |
| 20260505031103 | 51 | 229 | 0.9 | 6.1 | 0.00 | 0.01 | 0.01 | 73 | 1012.2 |
| 20260505030125 | 52 | 269 | 2.6 | 6.1 | 0.00 | 0.01 | 0.01 | 72 | 1012.0 |
| 20260505025104 | 52 | 253 | 2.6 | 5.2 | 0.01 | 0.01 | 0.01 | 71 | 1011.4 |
| 20260505024104 | 53 | 243 | 1.7 | 3.5 | 0.00 | 0.00 | 0.00 | 66 | 1011.3 |
| 20260505023103 | 53 | 13 | 1.7 | 1.7 | 0.00 | 0.00 | 0.00 | 65 | 1011.1 |
| 20260505022104 | 53 | 344 | 0.0 | 3.5 | 0.00 | 0.00 | 0.00 | 64 | 1011.0 |
| 20260505021103 | 53 | 353 | 1.7 | 6.1 | 0.00 | 0.00 | 0.00 | 65 | 1011.0 |
| 20260505020103 | 53 | 340 | 3.5 | 9.6 | 0.00 | 0.00 | 0.00 | 65 | 1011.3 |
| 20260505015103 | 53 | 340 | 4.3 | 9.6 | 0.00 | 0.00 | 0.00 | 65 | 1011.1 |
| 20260505014103 | 53 | 333 | 4.3 | 7.8 | 0.00 | 0.00 | 0.00 | 66 | 1011.0 |
| 20260505013105 | 54 | 331 | 4.3 | 10.4 | 0.00 | 0.00 | 0.00 | 65 | 1011.0 |
| 20260505012103 | 54 | 337 | 5.2 | 8.7 | 0.00 | 0.00 | 0.00 | 64 | 1011.0 |
| 20260505011103 | 55 | 306 | 4.3 | 10.4 | 0.00 | 0.00 | 0.00 | 63 | 1011.1 |
| 20260505010104 | 58 | 291 | 4.3 | 8.7 | 0.00 | 0.00 | 0.00 | 58 | 1011.0 |
| 20260505005103 | 58 | 321 | 2.6 | 4.3 | 0.00 | 0.00 | 0.00 | 52 | 1010.9 |
| 20260505004124 | 59 | 335 | 1.7 | 7.0 | 0.00 | 0.00 | 0.00 | 50 | 1010.6 |
| 20260505003103 | 59 | 333 | 2.6 | 7.0 | 0.00 | 0.00 | 0.00 | 50 | 1010.6 |
| 20260505002124 | 59 | 357 | 2.6 | 6.1 | 0.00 | 0.00 | 0.00 | 49 | 1010.7 |
| 20260505001102 | 59 | 5 | 1.7 | 4.3 | 0.00 | 0.00 | 0.00 | 52 | 1010.6 |
| 20260504235102 | 58 | 32 | 1.7 | 4.3 | 0.00 | 0.00 | 0.00 | 55 | 1010.4 |
| 20260504234124 | 58 | 19 | 2.6 | 7.8 | 0.00 | 0.00 | 0.00 | 54 | 1010.5 |
| 20260504233103 | 58 | 352 | 3.5 | 12.2 | 0.00 | 0.00 | 0.00 | 52 | 1010.6 |
| 20260504232104 | 60 | 311 | 5.2 | 14.8 | 0.00 | 0.00 | 0.00 | 50 | 1010.6 |
| 20260504231103 | 63 | 279 | 9.6 | 14.8 | 0.00 | 0.00 | 0.00 | 37 | 1010.2 |
| 20260504225103 | 64 | 299 | 3.5 | 7.8 | 0.00 | 0.00 | 0.00 | 32 | 1009.7 |
| 20260504224103 | 64 | 343 | 4.3 | 7.0 | 0.00 | 0.00 | 0.00 | 31 | 1009.5 |
| 20260504223103 | 64 | 353 | 2.6 | 7.0 | 0.00 | 0.00 | 0.00 | 32 | 1009.5 |
| 20260504222124 | 64 | 22 | 1.7 | 5.2 | 0.00 | 0.00 | 0.00 | 34 | 1009.5 |
| 20260504221102 | 63 | 3 | 2.6 | 6.1 | 0.00 | 0.00 | 0.00 | 35 | 1009.1 |
| 20260504215103 | 62 | 25 | 1.7 | 9.6 | 0.00 | 0.00 | 0.00 | 39 | 1009.4 |
| 20260504214103 | 63 | 275 | 7.0 | 15.6 | 0.00 | 0.00 | 0.00 | 40 | 1009.9 |
| 20260504213124 | 64 | 282 | 8.7 | 15.6 | 0.00 | 0.00 | 0.00 | 32 | 1010.1 |
| 20260504212103 | 65 | 311 | 7.0 | 19.1 | 0.00 | 0.00 | 0.00 | 28 | 1010.2 |
| 20260504211124 | 65 | 307 | 8.7 | 16.5 | 0.00 | 0.00 | 0.00 | 27 | 1010.1 |
| 20260504205105 | 66 | 12 | 6.1 | 13.9 | 0.00 | 0.00 | 0.00 | 26 | 1009.7 |
| 20260504204105 | 67 | 353 | 8.7 | 17.4 | 0.00 | 0.00 | 0.00 | 25 | 1009.4 |
| 20260504203105 | 68 | 0 | 10.4 | 19.1 | 0.00 | 0.00 | 0.00 | 23 | 1009.1 |
| 20260504202105 | 69 | 8 | 7.8 | 18.2 | 0.00 | 0.00 | 0.00 | 22 | 1009.0 |
| 20260504201105 | 71 | 351 | 9.6 | 17.4 | 0.00 | 0.00 | 0.00 | 19 | 1009.0 |
| 20260504200105 | 73 | 329 | 7.0 | 17.4 | 0.00 | 0.00 | 0.00 | 16 | 1009.1 |
| 20260504195105 | 75 | 316 | 7.0 | 13.9 | 0.00 | 0.00 | 0.00 | 17 | 1008.9 |
| 20260504194104 | 76 | 308 | 7.8 | 17.4 | 0.00 | 0.00 | 0.00 | 17 | 1008.9 |
| 20260504193105 | 76 | 296 | 5.2 | 15.6 | 0.00 | 0.00 | 0.00 | 17 | 1008.8 |
| 20260504192125 | 76 | 280 | 6.1 | 13.9 | 0.00 | 0.00 | 0.00 | 16 | 1008.7 |
| 20260504191105 | 76 | 336 | 7.0 | 11.3 | 0.00 | 0.00 | 0.00 | 16 | 1008.7 |
| 20260504190105 | 76 | 267 | 7.0 | 17.4 | 0.00 | 0.00 | 0.00 | 15 | 1008.8 |
| 20260504185104 | 76 | 244 | 5.2 | 10.4 | 0.00 | 0.00 | 0.00 | 16 | 1008.8 |
| 20260504184105 | 75 | 276 | 9.6 | 15.6 | 0.00 | 0.00 | 0.00 | 16 | 1008.9 |
| 20260504183106 | 75 | 267 | 9.6 | 16.5 | 0.00 | 0.00 | 0.00 | 17 | 1009.0 |
| 20260504182105 | 75 | 247 | 8.7 | 16.5 | 0.00 | 0.00 | 0.00 | 17 | 1009.2 |
| 20260504181105 | 74 | 250 | 6.1 | 13.9 | 0.00 | 0.00 | 0.00 | 19 | 1009.2 |
| 20260504180105 | 73 | 242 | 7.8 | 16.5 | 0.00 | 0.00 | 0.00 | 19 | 1009.2 |
| 20260504175105 | 72 | 254 | 5.2 | 17.4 | 0.00 | 0.00 | 0.00 | 20 | 1009.4 |
| 20260504174105 | 71 | 263 | 7.8 | 15.6 | 0.00 | 0.00 | 0.00 | 22 | 1009.6 |
| 20260504173127 | 71 | 253 | 7.0 | 15.6 | 0.00 | 0.00 | 0.00 | 21 | 1009.7 |
| 20260504172105 | 70 | 269 | 7.8 | 13.9 | 0.00 | 0.00 | 0.00 | 22 | 1009.7 |
| 20260504171105 | 69 | 259 | 7.8 | 17.4 | 0.00 | 0.00 | 0.00 | 22 | 1009.8 |
| 20260504170104 | 69 | 260 | 7.0 | 13.0 | 0.00 | 0.00 | 0.00 | 22 | 1009.8 |
| 20260504160105 | 65 | 245 | 3.5 | 8.7 | 0.00 | 0.00 | 0.00 | 26 | 1010.0 |
| 20260504151105 | 58 | 236 | 1.7 | 3.5 | 0.00 | 0.00 | 0.00 | 37 | 1010.2 |
| 20260504150104 | 57 | 226 | 0.9 | 3.5 | 0.00 | 0.00 | 0.00 | 38 | 1010.3 |
| 20260504141105 | 51 | 164 | 0.9 | 1.7 | 0.00 | 0.00 | 0.00 | 45 | 1010.5 |
| 20260504140125 | 50 | 164 | 0.0 | 1.7 | 0.00 | 0.00 | 0.00 | 46 | 1010.5 |
| 20260504130104 | 44 | 211 | 0.9 | 1.7 | 0.00 | 0.00 | 0.00 | 52 | 1010.4 |
| 20260504120126 | 43 | 225 | 0.0 | 0.9 | 0.00 | 0.00 | 0.00 | 48 | 1010.1 |
| 20260504110104 | 42 | 197 | 0.0 | 0.9 | 0.00 | 0.00 | 0.00 | 50 | 1010.4 |
| 20260504100103 | 45 | 197 | 0.0 | 0.9 | 0.00 | 0.00 | 0.00 | 52 | 1010.6 |
| 20260504090104 | 47 | 270 | 0.9 | 3.5 | 0.00 | 0.00 | 0.00 | 44 | 1010.9 |
| 20260504081104 | 49 | 344 | 0.9 | 3.5 | 0.00 | 0.00 | 0.00 | 43 | 1011.2 |
| 20260504080104 | 50 | 344 | 1.7 | 4.3 | 0.00 | 0.00 | 0.00 | 42 | 1011.3 |